User: anonymous
Location: Brno
(49.2000°N, 16.6330°E)
Time: 17:42:20
(UTC+02:00)
Language:

CARTOSAT-1 - Orbit

View from above orbital plane
View from above orbital plane
View from above satellite
View from above satellite

Ground track
Ground track

The orbit data is extracted from the following two-line orbital elements,

1 28649U 05017A   14234.09773167  .00000373  00000-0  51746-4 0  5240
2 28649 097.8298 306.8124 0002896 096.6724 263.4829 14.83465195503263
Epoch (UTC): 22 August 2014 02:20:44
Eccentricity: 0.0002896
inclination: 97.8298°
perigee height: 616 km
apogee height: 620 km
right ascension of ascending node: 306.8124°
argument of perigee: 96.6724°
revolutions per day: 14.83465195
mean anomaly at epoch: 263.4829°
orbit number at epoch: 50326

The dashed part of the orbit path shows where the satellite is in the earth's shadow,  

DLR